Content
SEND FEEDBACK

Daily
Averages
Monthly
Summary
United States of America

SPRINGFIELD, MISSOURI


Home > North America > United States > Missouri
Elevation: 1268 feet     Latitude: 37 14N     Longitude: 093 23W

WEATHER
 
SELECT A DAY
Number of Records: 205,278;   Date Range: 1/1/95 - 7/26/14
 
SHARE

PRINT THIS DATA

[ ← Previous Day ]
WEATHER ALMANAC - FEBRUARY 13, 2013
[ Next Day → ]
[ °C ]   °F
Weather ElementAverageHighLow
Temperature35.4 °F46.9 °F (3:52 pm)30.9 °F (7:32 am)
Dewpoint31.5 °F33.1 °F (10:52 am)30 °F (7:42 am)
Humidity87.2 %100 % (3:08 am)54 % (3:52 pm)
Barometer29.94 in29.99 in (10:52 am)29.91 in (3:59 am)
Wind Speed8.5 mph17.3 mph (10:52 am)
Weather ElementAverage
Visibility6.1 mi
Wind DirectionWSW (259.8 °)

Weather ElementTotal
Precipitation0.06 in
Heating Degree Days26.1 (Base 65)
Averaged from 45 records on February 13, 2013
WEATHER CONDITIONS BREAKOUT
WIND DIRECTION BREAKOUT
WEATHER BY HOUR - FEBRUARY 13, 2013
[ °C ]   °F
Local TimeTemperatureDewpointHumidityBarometerVisibilityWind DirectionWind SpeedGust SpeedPrecipitationEventsConditions
12:52 AM33.1 °F32.0 °F96 %29.96 in2.0 miNNW (330°)5.8 mph0.03 inSnowLight Snow
12:59 AM33.1 °F32.0 °F96 %29.94 in1.2 miNNW (340°)5.8 mph0.00 inSnowLight Snow
1:52 AM33.1 °F32.0 °F96 %29.95 in1.2 miNW (320°)5.8 mph0.02 inSnowLight Snow
1:59 AM33.1 °F32.0 °F96 %29.93 in2.0 miNW (320°)4.6 mph0.00 inSnowLight Snow
2:12 AM33.1 °F32.0 °F96 %29.93 in2.0 miNW (320°)6.9 mph0.00 inSnowLight Snow
2:52 AM33.1 °F32.0 °F96 %29.95 in2.0 miNW (320°)6.9 mph0.00 inSnowLight Snow
3:08 AM32.0 °F32.0 °F100 %29.92 in3.0 miNW (320°)8.1 mph0.00 inSnowLight Snow
3:16 AM32.0 °F32.0 °F100 %29.92 in2.5 miNW (320°)8.1 mph0.00 inSnowLight Snow
3:52 AM33.1 °F32.0 °F96 %29.94 in2.5 miNW (310°)5.8 mph0.01 inSnowLight Snow
3:59 AM33.1 °F32.0 °F96 %29.91 in3.0 miNW (310°)3.5 mph0.00 inSnowLight Snow
4:09 AM33.1 °F32.0 °F96 %29.91 in2.5 miWNW (300°)3.5 mph0.00 inSnowLight Snow
4:24 AM33.1 °F32.0 °F96 %29.91 in3.0 miWNW (290°)3.5 mph0.00 inSnowLight Snow
4:52 AM32.0 °F32.0 °F100 %29.93 in6.0 miSW (230°)3.5 mph0.00 inOvercast
5:25 AM32.0 °F32.0 °F100 %29.92 in1.0 miWest (280°)5.8 mphOvercast
5:52 AM32.0 °F32.0 °F100 %29.95 in1.0 miWest (280°)6.9 mphMist
6:26 AM32.0 °F32.0 °F100 %29.93 in0.8 miSW (230°)4.6 mphMist
6:52 AM32.0 °F30.9 °F96 %29.96 in0.5 miWSW (240°)5.8 mphFogFog
7:09 AM32.0 °F30.9 °F96 %29.94 in1.2 miWSW (240°)5.8 mphOvercast
7:32 AM30.9 °F30.9 °F100 %29.94 in2.5 miSW (230°)4.6 mphOvercast
7:42 AM30.9 °F30.0 °F96 %29.94 in4.0 miSW (230°)4.6 mphScattered Clouds
7:52 AM30.9 °F30.0 °F96 %29.97 in4.0 miSW (230°)6.9 mphScattered Clouds
8:05 AM30.9 °F30.9 °F100 %29.94 in2.5 miSW (220°)6.9 mphScattered Clouds
8:16 AM30.9 °F30.9 °F100 %29.95 in5.0 miSW (220°)6.9 mphScattered Clouds
8:52 AM33.1 °F30.9 °F92 %29.98 in8.0 miWSW (240°)11.5 mphClear
9:04 AM33.1 °F30.9 °F92 %29.94 in9.0 miSW (230°)12.7 mphPartly Cloudy
9:31 AM33.1 °F30.9 °F92 %29.95 in10.0 miWSW (240°)12.7 mphMostly Cloudy
9:52 AM34.0 °F32.0 °F92 %29.97 in10.0 miSW (230°)13.8 mphOvercast
10:52 AM36.0 °F33.1 °F89 %29.99 in10.0 miWSW (240°)17.3 mphOvercast
11:52 AM37.0 °F33.1 °F86 %29.99 in10.0 miWest (260°)13.8 mphOvercast
12:08 PM37.0 °F32.0 °F82 %29.96 in10.0 miWest (260°)13.8 mphOvercast
12:52 PM37.9 °F32.0 °F79 %29.97 in10.0 miWest (280°)10.4 mphMostly Cloudy
1:15 PM39.0 °F30.9 °F73 %29.93 in10.0 miWest (260°)9.2 mphPartly Cloudy
1:30 PM39.9 °F33.1 °F77 %29.92 in10.0 miSW (230°)12.7 mphMostly Cloudy
1:40 PM41.0 °F33.1 °F73 %29.92 in10.0 miWSW (240°)11.5 mphScattered Clouds
1:52 PM43.0 °F33.1 °F68 %29.94 in10.0 miWSW (240°)10.4 mphPartly Cloudy
2:52 PM45.0 °F33.1 °F63 %29.94 in10.0 miWest (260°)9.2 mphClear
3:52 PM46.9 °F30.9 °F54 %29.93 in10.0 miWest (260°)15.0 mphClear
4:52 PM46.0 °F30.0 °F54 %29.91 in10.0 miWSW (250°)12.7 mphClear
5:52 PM42.1 °F30.9 °F65 %29.91 in10.0 miWSW (250°)6.9 mphClear
6:52 PM37.0 °F30.0 °F76 %29.92 in10.0 miSSW (210°)6.9 mphClear
7:52 PM37.9 °F30.0 °F73 %29.92 in10.0 miSSW (210°)10.4 mphClear
8:52 PM37.0 °F30.0 °F76 %29.92 in10.0 miSSW (210°)10.4 mphClear
9:52 PM37.0 °F30.0 °F76 %29.92 in10.0 miSSW (210°)10.4 mphClear
10:52 PM37.0 °F30.0 °F76 %29.92 in10.0 miSSW (210°)9.2 mphClear
11:52 PM39.9 °F30.9 °F70 %29.92 in10.0 miWSW (240°)10.4 mphClear
Hourly data recorded from KSGF, located miles away from Springfield, Missouri







STORIES FROM OUR PARTNERS